STARLINK-35920, 66623

Orbit data source: Space-Track

STARLINK-35920, 66623 is a payload satellite owned by SpaceX/Seattle (US) in LEO that was launched on Sun, 23 Nov 2025 UTC via an FALCON 9 launch vehicle from the Air Force Western Test Range (AFWTR). Payload-class satellites include a variety of spacecraft equipped with specific instruments for various scientific and technological missions. These include communications satellites like Starlink; space stations such as the ISS; scientific satellites like the Hubble; Earth observation satellites from companies like Planet Labs, Umbra, and HawkEye 360; GPS; miniature CubeSats for education and research; and military/defense satellites.

Loading next visibility...
Identifier
66623, 2025-271G
Orbit
LEO
Country
Flag of USUS
Related business
Manufacturer
SpaceX/Seattle
Mission
Operational Commercial Communications
Bus & Motor
STARLINK V2MO, Unknown motor
Mass
575 kg wet, ~530 kg dry
Launch date (UTC)
2025-11-23 (7 months ago)
Launch vehicle
FALCON 9
Launch site
Air Force Western Test Range (AFWTR)
Object type
Payload
Rocket body
Debris
Shape & HBR
Box + 2 Pan, 17.7 m
Radar Cross Section
36.964 m², Large (>1 m²)

Expand to show TLE details & history
Last TLE update: 3 days ago

TLE from 3 days ago
0 STARLINK-35920
1 66623U 25271G   26170.86611310  .00027750  00000-0  82920-3 0  9997
2 66623  53.1590  22.9807 0001165  59.1584 300.9533 15.34407041 33245
Epoch: 2026-06-19T20:47Z
TLE epoch observation values (Epoch: 2026-06-19T20:47:12.171Z)
Latitude
-0.00005°
Longitude
163.09101°
Altitude
463.174 km
Speed
7.636 km/s
True Right ascension
01h 31m 55s
True Declination
0° 00' 00"
Sunlit
Object was in daylight at epoch
Visualization orbit readout
Latitude
Unknown
Longitude
Unknown
Altitude
Unknown
Speed
Unknown
Apparent Right ascension
Unknown
Apparent Declination
Unknown
Sunlit
N/A
Visualization observer readout
Local Sidereal Time
10:27:04
Azimuth
Unknown
Elevation
Unknown
Doppler factor
Unknown
Orbital elements
Apogee altitude
463.736 km
Perigee altitude
462.142 km
Semi-major axis
6,841.076 km
Eccentricity
0.00012
Inclination
53.159°
RAAN
22.9807°
Arg. of periapsis
59.1584°
True anomaly
300.94185°
Mean anomaly
300.9533°
Eccentric anomaly
300.94758°
Mean motion
3.8358 °/min
Orbital period
93.85 mins
BSTAR
0.0008292
Loading maneuver chart data...
Computing Atmospheric mass density...
Loading historical data...
Loading historical data...
Loading historical data...
Loading historical data...
Loading historical data...
Loading historical data...
Loading historical data...

Documentation

Showing up to 5 results
|